This demonstration page uses our WeatherBlox Daily Observations layout. Learn more.

Left ArrowRight Arrow

39.92423, -83.80882

Hourly Observations for March 27, 2020

Temp ( °F °C ) Dew Point ( °F °C ) Humidity (%) Winds ( mph kmh ) Pressure ( in mb ) Visibility ( mi km ) Precip ( " mm )
12:56 am 00:56 Cloudy 53 11.7 53 11.7 100 100 NE 8 13 29.81 1009 7 11.26538 0 0
1:56 am 01:56 Cloudy 52 11.1 52 11.1 100 100 NE 13 20 29.82 1010 10 16.0934 0 0
2:45 am 02:45 Cloudy 52 11 50 10 94 94 ENE 9 15 29.85 1011 10 16.0934 0 0
2:56 am 02:56 Cloudy 51 10.6 50 10 96 96 ENE 10 17 29.83 1010 10 16.0934 0 0
3:56 am 03:56 Cloudy 50 10 50 10 100 100 E 9 15 29.83 1010 10 16.0934 0 0
4:56 am 04:56 Cloudy 50 10 50 10 100 100 ENE 9 15 29.86 1011 10 16.0934 0 0
5:14 am 05:14 Cloudy 50 10 50 10 100 100 ENE 8 13 29.87 1012 10 16.0934 0 0
5:56 am 05:56 Mostly Cloudy 50 10 50 10 100 100 E 9 15 29.85 1011 10 16.0934 0 0
6:56 am 06:56 Clear 50 10 49 9.4 96 96 ESE 13 20 29.85 1011 10 16.0934 0 0
7:56 am 07:56 Mostly Cloudy 50 10 50 10 100 100 E 10 17 29.87 1012 10 16.0934 0 0
8:53 am 08:53 Cloudy with Heavy Rain 50 10 50 10 100 100 NE 6 9 29.93 1014 3 4.82802 0.02 0.508
8:56 am 08:56 Cloudy with Rain 50 10 50 10 100 100 ENE 6 9 29.93 1013 3 4.82802 0.03 0.762
9:06 am 09:06 Cloudy with Heavy Rain 50 10 50 10 100 100 N 6 9 29.95 1014 2.5 4.02335 0.03 0.762
9:48 am 09:48 Cloudy with Light Rain 48 9 48 9 100 100 ENE 8 13 29.93 1013 3 4.82802 0.4 10.16
9:56 am 09:56 Cloudy with Rain 50 10 50 10 100 100 NNE 7 11 29.95 1014 3 4.82802 0.43 10.922
10:20 am 10:20 Cloudy with Rain 50 10 50 10 100 100 ENE 10 17 29.93 1014 3 4.82802 0.31 7.874
10:33 am 10:33 Cloudy with Rain 50 10 50 10 100 100 E 12 19 29.92 1013 2.5 4.02335 0.35 8.89
10:51 am 10:51 Cloudy with Light Rain 50 10 50 10 100 100 E 8 13 29.93 1014 3 4.82802 0.38 9.652
10:56 am 10:56 Cloudy with Light Rain 50 10 50 10 100 100 ENE 9 15 29.93 1014 3 4.82802 0.43 10.922
11:02 am 11:02 Cloudy with Rain 50 10 50 10 100 100 ENE 12 19 29.92 1013 2.5 4.02335 0.1 2.54
11:10 am 11:10 Cloudy with Rain 50 10 50 10 100 100 ENE 12 19 29.91 1013 2.5 4.02335 0.42 10.668
11:43 am 11:43 Cloudy with Light Rain 50 10 50 10 100 100 E 13 20 29.9 1013 3 4.82802 0.42 10.668
11:56 am 11:56 Cloudy with Light Rain 51 10.6 51 10.6 100 100 E 13 20 29.88 1012 4 6.43736 0.42 10.668
12:56 pm 12:56 Cloudy with Mist and Fog 53 11.7 53 11.7 100 100 E 15 24 29.87 1012 5 8.0467 0.001 0.001
1:56 pm 13:56 Cloudy with Mist and Fog 54 12.2 54 12.2 100 100 ENE 14 22 29.88 1012 6 9.65604 0 0
2:56 pm 14:56 Cloudy with Light Rain 53 11.7 53 11.7 100 100 E 7 11 29.91 1013 7 11.26538 0.001 0.001
3:12 pm 15:12 Cloudy with Light Rain 54 12 54 12 100 100 E 8 13 29.91 1013 5 8.0467 0.001 0.001
3:45 pm 15:45 Cloudy with Light Rain 54 12 54 12 100 100 E 9 15 29.89 1012 4 6.43736 0.05 1.27
3:52 pm 15:52 Cloudy with Light Rain 54 12 54 12 100 100 E 8 13 29.89 1012 5 8.0467 0.05 1.27
3:56 pm 15:56 Cloudy with Light Rain 54 12.2 54 12.2 100 100 E 9 15 29.89 1012 5 8.0467 0.05 1.27
4:07 pm 16:07 Cloudy with Light Rain 54 12 54 12 100 100 E 12 19 29.88 1012 6 9.65604 0.001 0.001
4:26 pm 16:26 Cloudy 54 12 54 12 100 100 E 14 22 29.87 1012 7 11.26538 0.001 0.001
4:56 pm 16:56 Cloudy 54 12.2 54 12.2 100 100 E 15 24 29.86 1011 9 14.48406 0.001 0.001
5:04 pm 17:04 Cloudy 55 13 55 13 100 100 E 14 22 29.86 1011 9 14.48406 0 0
5:42 pm 17:42 Cloudy 54 12 54 12 100 100 ENE 14 22 29.88 1012 9 14.48406 0 0
5:56 pm 17:56 Cloudy 55 12.8 55 12.8 100 100 ENE 13 20 29.9 1013 8 12.87472 0 0
6:35 pm 18:35 Partly Cloudy 55 13 55 13 100 100 E 13 20 29.87 1011 10 16.0934 0 0
6:56 pm 18:56 Mostly Cloudy 55 12.8 55 12.8 100 100 ESE 14 22 29.87 1011 10 16.0934 0 0
7:56 pm 19:56 Cloudy 55 12.8 55 12.8 100 100 E 9 15 29.89 1012 10 16.0934 0 0
8:22 pm 20:22 Cloudy 54 12 54 12 100 100 ENE 10 17 29.88 1012 10 16.0934 0 0
8:39 pm 20:39 Cloudy 54 12 54 12 100 100 E 9 15 29.89 1012 9 14.48406 0 0
8:56 pm 20:56 Cloudy 54 12.2 54 12.2 100 100 E 12 19 29.91 1013 10 16.0934 0 0
9:56 pm 21:56 Cloudy with Mist and Fog 54 12.2 54 12.2 100 100 E 13 20 29.9 1013 5 8.0467 0 0
10:56 pm 22:56 Cloudy with Mist and Fog 53 11.7 53 11.7 100 100 E 12 19 29.88 1012 6 9.65604 0 0
11:06 pm 23:06 Cloudy with Mist and Fog 54 12 54 12 100 100 E 12 19 29.87 1012 5 8.0467 0 0
11:56 pm 23:56 Cloudy with Mist and Fog 53 11.7 53 11.7 100 100 SE 12 19 29.87 1012 4 6.43736 0 0

Powered by AerisWeather